Location: 81360 Arifat, France
(43.7204°N, 2.3408°E)
Time: 14:27:02
(UTC+02:00)

GHALIB - Pass Details

Date: 30 May 2022
Orbit: 510 x 523 km, 97.6° (Epoch: 04 July)

Event Time Altitude Azimuth Distance (km) Brightness Sun altitude
Exits shadow 02:29:29 14° 95° (E) 1,498 ? -23.9°
Maximum altitude 02:31:01 18° 66° (ENE) 1,335 ? -23.8°
Drops below altitude 10° 02:33:38 10° 23° (NNE) 1,763 ? -23.7°
Sets 02:36:14 0° 4° (N) 2,654 ? -23.6°
